Time,TemperatureF,DewpointF,PressureIn,WindDirection,WindDirectionDegrees,WindSpeedMPH,WindSpeedGustMPH,Humidity,HourlyPrecipIn,Conditions,Clouds,dailyrainin,SoftwareType,DateUTC
2013-04-08 00:01:00,70.0,49.0,29.63,NW,314,8.0,22.0,47,0.00,,,-99.99,,2013-04-08 07:01:00,
2013-04-08 00:11:00,68.0,49.0,29.62,NNW,339,8.0,21.0,51,0.00,,,-99.99,,2013-04-08 07:11:00,
2013-04-08 00:21:00,68.0,49.0,29.62,NNW,339,8.0,21.0,51,0.00,,,-99.99,,2013-04-08 07:21:00,
2013-04-08 00:32:00,68.0,49.0,29.62,NNW,339,8.0,21.0,51,0.00,,,-99.99,,2013-04-08 07:32:00,
2013-04-08 00:41:00,68.0,49.0,29.62,NNW,339,8.0,21.0,51,0.00,,,-99.99,,2013-04-08 07:41:00,
2013-04-08 00:52:00,67.0,49.0,29.63,WNW,290,11.0,20.0,52,0.00,,,-99.99,,2013-04-08 07:52:00,
2013-04-08 01:02:00,66.0,49.0,29.62,NE,35,9.0,30.0,55,0.00,,,-99.99,,2013-04-08 08:02:00,
2013-04-08 01:11:00,66.0,49.0,29.62,NE,35,9.0,30.0,55,0.00,,,-99.99,,2013-04-08 08:11:00,
2013-04-08 01:21:00,66.0,49.0,29.62,NE,35,9.0,30.0,55,0.00,,,-99.99,,2013-04-08 08:21:00,
2013-04-08 01:31:00,66.0,50.0,29.62,WNW,301,10.0,24.0,57,0.00,,,-99.99,,2013-04-08 08:31:00,
2013-04-08 01:42:00,65.0,50.0,29.62,West,259,10.0,24.0,58,0.00,,,-99.99,,2013-04-08 08:42:00,
2013-04-08 01:52:00,65.0,50.0,29.62,West,259,10.0,24.0,58,0.00,,,-99.99,,2013-04-08 08:52:00,
2013-04-08 02:01:00,64.0,50.0,29.61,North,1,13.0,22.0,60,0.00,,,-99.99,,2013-04-08 09:01:00,
2013-04-08 02:11:00,64.0,51.0,29.60,North,351,10.0,20.0,62,0.00,,,-99.99,,2013-04-08 09:11:00,
2013-04-08 02:22:00,64.0,51.0,29.60,North,351,10.0,20.0,62,0.00,,,-99.99,,2013-04-08 09:22:00,
2013-04-08 02:32:00,63.0,49.0,29.58,WNW,288,10.0,25.0,61,0.00,,,-99.99,,2013-04-08 09:32:00,
2013-04-08 02:42:00,64.0,49.0,29.57,WSW,250,4.0,21.0,59,0.00,,,-99.99,,2013-04-08 09:42:00,
2013-04-08 02:53:00,64.0,49.0,29.57,WSW,250,4.0,21.0,59,0.00,,,-99.99,,2013-04-08 09:53:00,
2013-04-08 03:02:00,64.0,49.0,29.57,WNW,300,7.0,18.0,59,0.00,,,-99.99,,2013-04-08 10:02:00,
2013-04-08 03:12:00,64.0,50.0,29.57,NW,316,8.0,19.0,60,0.00,,,-99.99,,2013-04-08 10:12:00,
2013-04-08 03:22:00,64.0,50.0,29.57,NW,316,8.0,19.0,60,0.00,,,-99.99,,2013-04-08 10:22:00,
2013-04-08 03:32:00,64.0,50.0,29.55,West,278,12.0,24.0,60,0.00,,,-99.99,,2013-04-08 10:32:00,
2013-04-08 03:41:00,64.0,50.0,29.55,West,278,12.0,24.0,60,0.00,,,-99.99,,2013-04-08 10:41:00,
2013-04-08 03:52:00,63.0,48.0,29.55,NW,304,12.0,21.0,59,0.00,,,-99.99,,2013-04-08 10:52:00,
2013-04-08 04:02:00,63.0,49.0,29.55,West,281,8.0,18.0,60,0.00,,,-99.99,,2013-04-08 11:02:00,
2013-04-08 04:11:00,62.0,49.0,29.54,NW,307,8.0,16.0,62,0.00,,,-99.99,,2013-04-08 11:11:00,
2013-04-08 04:22:00,62.0,49.0,29.54,NW,307,8.0,16.0,62,0.00,,,-99.99,,2013-04-08 11:22:00,
2013-04-08 04:32:00,63.0,49.0,29.53,NW,321,9.0,18.0,60,0.00,,,-99.99,,2013-04-08 11:32:00,
2013-04-08 04:42:00,63.0,49.0,29.53,NW,321,9.0,18.0,60,0.00,,,-99.99,,2013-04-08 11:42:00,
2013-04-08 04:52:00,63.0,48.0,29.52,NW,326,8.0,14.0,57,0.00,,,-99.99,,2013-04-08 11:52:00,
2013-04-08 05:01:00,63.0,46.0,29.51,WNW,296,8.0,18.0,54,0.00,,,-99.99,,2013-04-08 12:01:00,
2013-04-08 05:11:00,63.0,46.0,29.51,WNW,296,8.0,18.0,54,0.00,,,-99.99,,2013-04-08 12:11:00,
2013-04-08 05:21:00,64.0,44.0,29.52,NW,326,6.0,14.0,49,0.00,,,-99.99,,2013-04-08 12:21:00,
2013-04-08 05:32:00,63.0,48.0,29.52,NNW,328,8.0,16.0,58,0.00,,,-99.99,,2013-04-08 12:32:00,
2013-04-08 05:42:00,63.0,48.0,29.52,NNW,328,8.0,16.0,58,0.00,,,-99.99,,2013-04-08 12:42:00,
2013-04-08 05:52:00,62.0,47.0,29.52,NNW,330,8.0,18.0,57,0.00,,,-99.99,,2013-04-08 12:52:00,
2013-04-08 06:02:00,63.0,46.0,29.52,NW,326,8.0,21.0,53,0.00,,,-99.99,,2013-04-08 13:02:00,
2013-04-08 06:11:00,63.0,46.0,29.52,NW,326,8.0,21.0,53,0.00,,,-99.99,,2013-04-08 13:11:00,
2013-04-08 06:21:00,63.0,47.0,29.50,North,355,7.0,24.0,56,0.00,,,-99.99,,2013-04-08 13:21:00,
2013-04-08 06:31:00,63.0,45.0,29.51,East,79,1.0,7.0,51,0.00,,,-99.99,,2013-04-08 13:31:00,
2013-04-08 06:42:00,63.0,45.0,29.51,East,79,1.0,7.0,51,0.00,,,-99.99,,2013-04-08 13:42:00,
2013-04-08 06:52:00,64.0,39.0,29.49,WSW,238,0.0,4.0,40,0.00,,,-99.99,,2013-04-08 13:52:00,
2013-04-08 07:01:00,65.0,40.0,29.50,SW,217,1.0,4.0,40,0.00,,,-99.99,,2013-04-08 14:01:00,
2013-04-08 07:11:00,66.0,40.0,29.51,ENE,65,2.0,6.0,39,0.00,,,-99.99,,2013-04-08 14:11:00,
2013-04-08 07:21:00,66.0,40.0,29.51,ENE,65,2.0,6.0,39,0.00,,,-99.99,,2013-04-08 14:21:00,
2013-04-08 07:32:00,67.0,37.0,29.49,East,82,2.0,7.0,33,0.00,,,-99.99,,2013-04-08 14:32:00,
2013-04-08 07:41:00,69.0,38.0,29.49,ESE,107,3.0,13.0,32,0.00,,,-99.99,,2013-04-08 14:41:00,
2013-04-08 07:52:00,69.0,38.0,29.49,ESE,107,3.0,13.0,32,0.00,,,-99.99,,2013-04-08 14:52:00,
2013-04-08 08:01:00,69.0,35.0,29.48,NNE,33,7.0,20.0,29,0.00,,,-99.99,,2013-04-08 15:01:00,
2013-04-08 08:11:00,70.0,38.0,29.51,East,86,2.0,12.0,31,0.00,,,-99.99,,2013-04-08 15:11:00,
2013-04-08 08:21:00,70.0,38.0,29.51,East,86,2.0,12.0,31,0.00,,,-99.99,,2013-04-08 15:21:00,
2013-04-08 08:32:00,68.0,39.0,29.48,NE,44,8.0,15.0,35,0.00,,,-99.99,,2013-04-08 15:32:00,
2013-04-08 08:42:00,68.0,39.0,29.48,NE,44,8.0,15.0,35,0.00,,,-99.99,,2013-04-08 15:42:00,
2013-04-08 08:53:00,70.0,34.0,29.47,NNW,333,4.0,8.0,27,0.00,,,-99.99,,2013-04-08 15:53:00,
2013-04-08 09:02:00,70.0,37.0,29.49,ENE,58,5.0,9.0,30,0.00,,,-99.99,,2013-04-08 16:02:00,
2013-04-08 09:12:00,70.0,38.0,29.45,NNE,30,9.0,18.0,31,0.00,,,-99.99,,2013-04-08 16:12:00,
2013-04-08 09:22:00,70.0,38.0,29.45,NNE,30,9.0,18.0,31,0.00,,,-99.99,,2013-04-08 16:22:00,
2013-04-08 09:32:00,70.0,38.0,29.45,NNE,30,9.0,18.0,31,0.00,,,-99.99,,2013-04-08 16:32:00,
2013-04-08 09:41:00,70.0,36.0,29.49,SW,222,7.0,15.0,29,0.00,,,-99.99,,2013-04-08 16:41:00,
2013-04-08 09:53:00,71.0,37.0,29.50,ENE,59,3.0,12.0,29,0.00,,,-99.99,,2013-04-08 16:53:00,
2013-04-08 10:02:00,71.0,36.0,29.51,ESE,103,9.0,23.0,28,0.00,,,-99.99,,2013-04-08 17:02:00,
2013-04-08 10:11:00,71.0,38.0,29.50,NNE,20,6.0,17.0,30,0.00,,,-99.99,,2013-04-08 17:11:00,
2013-04-08 10:22:00,71.0,38.0,29.50,NNE,20,6.0,17.0,30,0.00,,,-99.99,,2013-04-08 17:22:00,
2013-04-08 10:31:00,71.0,37.0,29.49,NE,50,4.0,16.0,29,0.00,,,-99.99,,2013-04-08 17:31:00,
2013-04-08 10:42:00,71.0,37.0,29.49,NE,50,4.0,16.0,29,0.00,,,-99.99,,2013-04-08 17:42:00,
2013-04-08 10:52:00,71.0,38.0,29.50,SE,146,8.0,20.0,30,0.00,,,-99.99,,2013-04-08 17:52:00,
2013-04-08 11:02:00,72.0,39.0,29.51,East,86,4.0,7.0,30,0.00,,,-99.99,,2013-04-08 18:02:00,
2013-04-08 11:11:00,71.0,40.0,29.51,North,349,5.0,9.0,33,0.00,,,-99.99,,2013-04-08 18:11:00,
2013-04-08 11:22:00,71.0,40.0,29.51,North,349,5.0,9.0,33,0.00,,,-99.99,,2013-04-08 18:22:00,
2013-04-08 11:32:00,70.0,43.0,29.49,NNE,32,8.0,17.0,37,0.00,,,-99.99,,2013-04-08 18:32:00,
2013-04-08 11:42:00,74.0,36.0,29.46,ENE,72,1.0,14.0,25,0.00,,,-99.99,,2013-04-08 18:42:00,
2013-04-08 11:52:00,74.0,36.0,29.46,ENE,72,1.0,14.0,25,0.00,,,-99.99,,2013-04-08 18:52:00,
2013-04-08 12:01:00,74.0,38.0,29.48,NW,309,8.0,19.0,27,0.00,,,-99.99,,2013-04-08 19:01:00,
2013-04-08 12:12:00,71.0,40.0,29.51,WNW,290,6.0,11.0,32,0.00,,,-99.99,,2013-04-08 19:12:00,
2013-04-08 12:22:00,71.0,40.0,29.51,WNW,290,6.0,11.0,32,0.00,,,-99.99,,2013-04-08 19:22:00,
2013-04-08 12:32:00,72.0,41.0,29.51,WNW,285,6.0,12.0,33,0.00,,,-99.99,,2013-04-08 19:32:00,
2013-04-08 12:42:00,69.0,42.0,29.50,NNE,19,9.0,24.0,37,0.00,,,-99.99,,2013-04-08 19:42:00,
2013-04-08 12:52:00,69.0,42.0,29.50,NNE,19,9.0,24.0,37,0.00,,,-99.99,,2013-04-08 19:52:00,
2013-04-08 13:01:00,69.0,42.0,29.50,NW,318,9.0,21.0,37,0.00,,,-99.99,,2013-04-08 20:01:00,
2013-04-08 13:11:00,68.0,41.0,29.50,WSW,241,7.0,19.0,37,0.00,,,-99.99,,2013-04-08 20:11:00,
2013-04-08 13:22:00,68.0,41.0,29.50,WSW,241,7.0,19.0,37,0.00,,,-99.99,,2013-04-08 20:22:00,
2013-04-08 13:32:00,68.0,41.0,29.51,NNW,333,9.0,19.0,37,0.00,,,-99.99,,2013-04-08 20:32:00,
2013-04-08 13:42:00,68.0,41.0,29.51,NNW,333,9.0,19.0,37,0.00,,,-99.99,,2013-04-08 20:42:00,
2013-04-08 13:52:00,68.0,41.0,29.50,NNW,329,10.0,19.0,37,0.00,,,-99.99,,2013-04-08 20:52:00,
2013-04-08 14:01:00,68.0,41.0,29.48,NE,37,11.0,21.0,37,0.00,,,-99.99,,2013-04-08 21:01:00,
2013-04-08 14:11:00,70.0,38.0,29.49,WNW,303,10.0,19.0,31,0.00,,,-99.99,,2013-04-08 21:11:00,
2013-04-08 14:21:00,70.0,38.0,29.49,WNW,303,10.0,19.0,31,0.00,,,-99.99,,2013-04-08 21:21:00,
2013-04-08 14:32:00,72.0,39.0,29.53,West,266,9.0,32.0,30,0.00,,,-99.99,,2013-04-08 21:32:00,
2013-04-08 14:42:00,72.0,39.0,29.53,West,266,9.0,32.0,30,0.00,,,-99.99,,2013-04-08 21:42:00,
2013-04-08 14:52:00,71.0,37.0,29.52,ENE,76,1.0,11.0,29,0.00,,,-99.99,,2013-04-08 21:52:00,
2013-04-08 15:02:00,71.0,34.0,29.53,NNW,328,13.0,24.0,26,0.00,,,-99.99,,2013-04-08 22:02:00,
2013-04-08 15:12:00,71.0,33.0,29.52,West,281,14.0,30.0,25,0.00,,,-99.99,,2013-04-08 22:12:00,
2013-04-08 15:22:00,71.0,33.0,29.52,West,281,14.0,30.0,25,0.00,,,-99.99,,2013-04-08 22:22:00,
2013-04-08 15:31:00,71.0,33.0,29.52,West,281,14.0,30.0,25,0.00,,,-99.99,,2013-04-08 22:31:00,
2013-04-08 15:42:00,71.0,33.0,29.54,NNE,15,8.0,25.0,25,0.00,,,-99.99,,2013-04-08 22:42:00,
2013-04-08 15:53:00,70.0,34.0,29.54,West,271,10.0,19.0,27,0.00,,,-99.99,,2013-04-08 22:53:00,
2013-04-08 16:02:00,67.0,40.0,29.55,North,5,7.0,17.0,37,0.00,,,-99.99,,2013-04-08 23:02:00,
2013-04-08 16:11:00,67.0,40.0,29.55,North,5,7.0,17.0,37,0.00,,,-99.99,,2013-04-08 23:11:00,
2013-04-08 16:21:00,67.0,40.0,29.55,North,5,7.0,17.0,37,0.00,,,-99.99,,2013-04-08 23:21:00,
2013-04-08 16:31:00,69.0,35.0,29.52,NW,326,9.0,24.0,28,0.00,,,-99.99,,2013-04-08 23:31:00,
2013-04-08 16:41:00,68.0,37.0,29.51,WNW,284,9.0,20.0,32,0.00,,,-99.99,,2013-04-08 23:41:00,
2013-04-08 16:52:00,68.0,37.0,29.51,WNW,284,9.0,20.0,32,0.00,,,-99.99,,2013-04-08 23:52:00,
2013-04-08 17:01:00,68.0,35.0,29.51,West,263,10.0,23.0,30,0.00,,,-99.99,,2013-04-09 00:01:00,
2013-04-08 17:11:00,68.0,35.0,29.51,West,263,10.0,23.0,30,0.00,,,-99.99,,2013-04-09 00:11:00,
2013-04-08 17:21:00,69.0,35.0,29.52,NW,314,10.0,21.0,29,0.00,,,-99.99,,2013-04-09 00:21:00,
2013-04-08 17:31:00,69.0,34.0,29.52,WNW,298,9.0,22.0,27,0.00,,,-99.99,,2013-04-09 00:31:00,
2013-04-08 17:41:00,68.0,35.0,29.53,West,275,9.0,23.0,29,0.00,,,-99.99,,2013-04-09 00:41:00,
2013-04-08 17:52:00,68.0,35.0,29.53,West,275,9.0,23.0,29,0.00,,,-99.99,,2013-04-09 00:52:00,
2013-04-08 18:02:00,68.0,35.0,29.54,NW,314,11.0,22.0,29,0.00,,,-99.99,,2013-04-09 01:02:00,
2013-04-08 18:11:00,67.0,36.0,29.54,WNW,300,8.0,20.0,32,0.00,,,-99.99,,2013-04-09 01:11:00,
2013-04-08 18:21:00,67.0,36.0,29.54,WNW,300,8.0,20.0,32,0.00,,,-99.99,,2013-04-09 01:21:00,
2013-04-08 18:31:00,67.0,36.0,29.54,ENE,77,7.0,20.0,32,0.00,,,-99.99,,2013-04-09 01:31:00,
2013-04-08 18:41:00,65.0,35.0,29.55,WNW,300,10.0,21.0,33,0.00,,,-99.99,,2013-04-09 01:41:00,
2013-04-08 18:52:00,65.0,35.0,29.55,WNW,300,10.0,21.0,33,0.00,,,-99.99,,2013-04-09 01:52:00,
2013-04-08 19:02:00,65.0,36.0,29.56,NNW,337,8.0,20.0,34,0.00,,,-99.99,,2013-04-09 02:02:00,
2013-04-08 19:11:00,65.0,36.0,29.56,NNW,337,8.0,20.0,34,0.00,,,-99.99,,2013-04-09 02:11:00,
2013-04-08 19:21:00,64.0,36.0,29.57,NW,321,8.0,18.0,35,0.00,,,-99.99,,2013-04-09 02:21:00,
2013-04-08 19:32:00,64.0,36.0,29.57,WSW,256,9.0,23.0,35,0.00,,,-99.99,,2013-04-09 02:32:00,
2013-04-08 19:42:00,63.0,36.0,29.57,North,1,9.0,23.0,37,0.00,,,-99.99,,2013-04-09 02:42:00,
2013-04-08 19:52:00,63.0,36.0,29.57,North,1,9.0,23.0,37,0.00,,,-99.99,,2013-04-09 02:52:00,
2013-04-08 20:01:00,62.0,37.0,29.58,NNW,347,7.0,18.0,40,0.00,,,-99.99,,2013-04-09 03:01:00,
2013-04-08 20:11:00,62.0,37.0,29.58,NNW,347,7.0,18.0,40,0.00,,,-99.99,,2013-04-09 03:11:00,
2013-04-08 20:21:00,62.0,39.0,29.59,WNW,285,6.0,13.0,43,0.00,,,-99.99,,2013-04-09 03:21:00,
2013-04-08 20:32:00,61.0,39.0,29.60,West,269,7.0,21.0,44,0.00,,,-99.99,,2013-04-09 03:32:00,
2013-04-08 20:42:00,61.0,39.0,29.60,West,269,7.0,21.0,44,0.00,,,-99.99,,2013-04-09 03:42:00,
2013-04-08 20:53:00,60.0,39.0,29.62,WNW,293,7.0,15.0,46,0.00,,,-99.99,,2013-04-09 03:53:00,
2013-04-08 21:02:00,60.0,39.0,29.62,North,352,6.0,14.0,45,0.00,,,-99.99,,2013-04-09 04:02:00,
2013-04-08 21:12:00,60.0,39.0,29.62,North,352,6.0,14.0,45,0.00,,,-99.99,,2013-04-09 04:12:00,
2013-04-08 21:22:00,60.0,40.0,29.62,NW,326,5.0,16.0,47,0.00,,,-99.99,,2013-04-09 04:22:00,
2013-04-08 21:32:00,60.0,40.0,29.62,WNW,293,5.0,16.0,47,0.00,,,-99.99,,2013-04-09 04:32:00,
2013-04-08 21:42:00,60.0,40.0,29.62,WNW,293,5.0,16.0,47,0.00,,,-99.99,,2013-04-09 04:42:00,
2013-04-08 21:53:00,60.0,40.0,29.62,WNW,293,5.0,16.0,47,0.00,,,-99.99,,2013-04-09 04:53:00,
2013-04-08 22:02:00,61.0,39.0,29.64,West,274,9.0,20.0,44,0.00,,,-99.99,,2013-04-09 05:02:00,
2013-04-08 22:12:00,60.0,39.0,29.65,NW,307,7.0,24.0,45,0.00,,,-99.99,,2013-04-09 05:12:00,
2013-04-08 22:22:00,60.0,39.0,29.65,NW,307,7.0,24.0,45,0.00,,,-99.99,,2013-04-09 05:22:00,
2013-04-08 22:32:00,60.0,39.0,29.65,West,270,7.0,19.0,45,0.00,,,-99.99,,2013-04-09 05:32:00,
2013-04-08 22:42:00,60.0,37.0,29.65,West,266,9.0,19.0,42,0.00,,,-99.99,,2013-04-09 05:42:00,
2013-04-08 22:52:00,60.0,37.0,29.65,West,266,9.0,19.0,42,0.00,,,-99.99,,2013-04-09 05:52:00,
2013-04-08 23:02:00,60.0,37.0,29.66,SW,229,8.0,18.0,42,0.00,,,-99.99,,2013-04-09 06:02:00,
2013-04-08 23:12:00,61.0,35.0,29.66,NW,309,8.0,17.0,38,0.00,,,-99.99,,2013-04-09 06:12:00,
2013-04-08 23:22:00,61.0,35.0,29.66,NW,309,8.0,17.0,38,0.00,,,-99.99,,2013-04-09 06:22:00,
2013-04-08 23:31:00,61.0,36.0,29.66,NNW,342,9.0,24.0,39,0.00,,,-99.99,,2013-04-09 06:31:00,
2013-04-08 23:42:00,61.0,36.0,29.66,NNW,342,9.0,24.0,39,0.00,,,-99.99,,2013-04-09 06:42:00,
2013-04-08 23:52:00,61.0,35.0,29.67,WNW,293,12.0,21.0,38,0.00,,,-99.99,,2013-04-09 06:52:00,